Date String (YYYY-MM-DD hh:mm:ss) UTC,Instrument flags,absolute air pressure of the measurement (hPa),sample flow rate (lpm),inlet stack bypass flow (lpm),air temperature of the measurement (°C),ambient temperature measured by the external sensor (°C),aerosol sample conditioner tube jacket temperature (°C),OPC LED temperature (°C),internal box temperature (°C),relative humidity of the measurement (%),span deviation,mass concentration of particles derived from Lorenz-Mie calculation of OPC scattering (μg/m³),mass concentration of particles derived from Lorenz-Mie calculation of OPC scattering (μg/m³),mass concentration of particles derived from Lorenz-Mie calculation of OPC scattering (μg/m³)
DateTimeUTC,F1_M11,P_M11,Q1_M11,Q2_M11,T1_M11,T2_M11,T3_M11,T4_M11,T5_M11,U1_M11,ZSPAN_M11,X0_M11,X2_M11,X1_M11
2024-03-01 10:00:00,SystemResetWarning,0821.8,5.01,000.00,021.8,021.0,000.0,030.2,023.5,09.4,0000.0,0009.03,0003.42,0001.82
2024-03-01 10:01:00,SystemResetWarning,0821.8,5.01,000.00,021.8,020.9,000.0,030.1,023.5,09.5,0000.0,0008.85,0003.40,0001.80
2024-03-01 10:02:00,SystemResetWarning,0821.7,5.00,000.00,021.8,020.9,000.0,030.1,023.5,09.4,0000.0,0008.00,0003.35,0001.79
2024-03-01 10:03:00,SystemResetWarning,0821.7,5.00,000.00,021.8,020.9,000.0,030.1,023.5,09.5,0000.0,0008.02,0003.34,0001.79
2024-03-01 10:04:00,SystemResetWarning,0821.7,4.99,000.00,021.8,020.9,000.0,030.1,023.5,09.4,0000.0,0008.06,0003.35,0001.79
2024-03-01 10:05:00,SystemResetWarning,0821.7,4.99,000.00,021.7,020.9,000.0,030.1,023.5,09.3,0000.0,0007.99,0003.35,0001.79
2024-03-01 10:06:00,SystemResetWarning,0821.6,5.00,000.00,021.7,020.9,000.0,030.1,023.5,09.3,0000.0,0007.95,0003.39,0001.78
2024-03-01 10:07:00,SystemResetWarning,0821.5,4.99,000.00,021.7,020.9,000.0,030.1,023.4,09.3,0000.0,0007.16,0003.37,0001.76
2024-03-01 10:08:00,SystemResetWarning,0821.6,5.01,000.00,021.7,020.8,000.0,030.1,023.4,09.4,0000.0,0006.95,0003.35,0001.77
2024-03-01 10:09:00,SystemResetWarning,0821.7,5.01,000.00,021.7,020.8,000.0,030.1,023.4,09.4,0000.0,0006.65,0003.30,0001.77
2024-03-01 10:10:00,SystemResetWarning,0821.5,5.00,000.00,021.7,020.8,000.0,030.0,023.4,09.4,0000.0,0006.45,0003.25,0001.77
2024-03-01 10:11:00,SystemResetWarning,0821.8,4.99,000.00,021.7,020.8,000.0,030.0,023.4,09.4,0000.0,0006.37,0003.22,0001.77
2024-03-01 10:12:00,SystemResetWarning,0821.9,4.99,000.00,021.7,020.8,000.0,030.0,023.4,09.4,0000.0,0006.37,0003.23,0001.78
2024-03-01 10:13:00,SystemResetWarning,0821.9,5.01,000.00,021.7,020.8,000.0,030.0,023.4,09.4,0000.0,0006.51,0003.26,0001.77
2024-03-01 10:14:00,SystemResetWarning,0821.8,5.01,000.00,021.6,020.8,000.0,030.0,023.3,09.4,0000.0,0006.47,0003.27,0001.78
2024-03-01 10:15:00,SystemResetWarning,0821.8,5.00,000.00,021.6,020.7,000.0,030.0,023.3,09.5,0000.0,0006.44,0003.27,0001.78
2024-03-01 10:16:00,SystemResetWarning,0821.6,5.00,000.00,021.6,020.7,000.0,030.0,023.3,09.5,0000.0,0006.50,0003.26,0001.76
2024-03-01 10:17:00,SystemResetWarning,0821.3,5.00,000.00,021.6,020.7,000.0,029.9,023.3,09.4,0000.0,0006.45,0003.23,0001.77
2024-03-01 10:18:00,SystemResetWarning,0821.3,4.99,000.00,021.6,020.7,000.0,029.9,023.3,09.5,0000.0,0007.04,0003.25,0001.76
2024-03-01 10:19:00,SystemResetWarning,0821.3,5.00,000.00,021.6,020.7,000.0,029.9,023.3,09.5,0000.0,0007.61,0003.26,0001.74
2024-03-01 10:20:00,SystemResetWarning,0821.3,4.99,000.00,021.6,020.7,000.0,029.9,023.3,09.5,0000.0,0007.72,0003.24,0001.73
2024-03-01 10:21:00,SystemResetWarning,0821.3,5.00,000.00,021.5,020.7,000.0,029.9,023.3,09.6,0000.0,0008.32,0003.24,0001.72
2024-03-01 10:22:00,SystemResetWarning,0821.3,5.00,000.00,021.5,020.6,000.0,029.9,023.2,09.5,0000.0,0008.28,0003.23,0001.73
2024-03-01 10:23:00,SystemResetWarning,0821.3,5.00,000.00,021.5,020.6,000.0,029.9,023.2,09.5,0000.0,0008.32,0003.25,0001.74
2024-03-01 10:24:00,SystemResetWarning,0821.3,5.00,000.00,021.5,020.6,000.0,029.8,023.2,09.5,0000.0,0008.39,0003.28,0001.75
2024-03-01 10:25:00,SystemResetWarning,0821.3,5.00,000.00,021.5,020.6,000.0,029.8,023.2,09.5,0000.0,0008.72,0003.30,0001.74
2024-03-01 10:26:00,SystemResetWarning,0821.3,5.01,000.00,021.5,020.6,000.0,029.8,023.2,09.5,0000.0,0009.17,0003.28,0001.75
2024-03-01 10:27:00,SystemResetWarning,0821.4,5.00,000.00,021.5,020.6,000.0,029.8,023.2,09.6,0000.0,0009.03,0003.24,0001.75
2024-03-01 10:28:00,SystemResetWarning,0821.2,5.01,000.00,021.5,020.6,000.0,029.8,023.2,09.6,0000.0,0009.08,0003.21,0001.74
2024-03-01 10:29:00,SystemResetWarning,0821.2,4.99,000.00,021.4,020.6,000.0,029.8,023.2,09.6,0000.0,0008.75,0003.17,0001.74
2024-03-01 10:30:00,SystemResetWarning,0821.3,5.00,000.00,021.4,020.6,000.0,029.8,023.2,09.6,0000.0,0008.92,0003.17,0001.73
2024-03-01 10:31:00,SystemResetWarning,0821.4,4.99,000.00,021.4,020.6,000.0,029.8,023.1,09.6,0000.0,0009.62,0003.21,0001.74
2024-03-01 10:32:00,SystemResetWarning,0821.3,4.99,000.00,021.4,020.6,000.0,029.8,023.1,09.6,0000.0,0009.80,0003.20,0001.73
2024-03-01 10:33:00,SystemResetWarning,0821.8,5.01,000.00,021.4,020.6,000.0,029.7,023.1,09.6,0000.0,0009.85,0003.19,0001.70
2024-03-01 10:34:00,SystemResetWarning,0821.7,5.02,000.00,021.4,020.6,000.0,029.7,023.2,09.7,0000.0,0010.09,0003.17,0001.69
2024-03-01 10:35:00,SystemResetWarning,0821.8,5.00,000.00,021.4,020.6,000.0,029.7,023.1,09.6,0000.0,0010.11,0003.18,0001.69
2024-03-01 10:36:00,SystemResetWarning,0822.0,5.00,000.00,021.4,020.6,000.0,029.7,023.1,09.6,0000.0,0009.88,0003.15,0001.68
2024-03-01 10:37:00,SystemResetWarning,0821.8,5.00,000.00,021.4,020.5,000.0,029.7,023.1,09.6,0000.0,0009.45,0003.19,0001.67
2024-03-01 10:38:00,SystemResetWarning,0821.7,5.01,000.00,021.4,020.5,000.0,029.7,023.1,09.6,0000.0,0009.97,0003.20,0001.66
2024-03-01 10:39:00,SystemResetWarning,0821.7,5.01,000.00,021.4,020.5,000.0,029.7,023.1,09.7,0000.0,0010.33,0003.25,0001.67
2024-03-01 10:40:00,SystemResetWarning,0821.7,5.00,000.00,021.4,020.5,000.0,029.7,023.1,09.8,0000.0,0011.50,0003.29,0001.68
2024-03-01 10:41:00,SystemResetWarning,0821.6,4.99,000.00,021.4,020.5,000.0,029.7,023.1,09.8,0000.0,0011.90,0003.30,0001.67
2024-03-01 10:42:00,SystemResetWarning,0821.7,5.00,000.00,021.4,020.5,000.0,029.7,023.1,09.7,0000.0,0011.74,0003.28,0001.66
2024-03-01 10:43:00,SystemResetWarning,0821.8,4.99,000.00,021.4,020.6,000.0,029.7,023.1,09.6,0000.0,0011.50,0003.31,0001.66
2024-03-01 10:44:00,SystemResetWarning,0821.8,5.00,000.00,021.4,020.6,000.0,029.7,023.1,09.7,0000.0,0011.61,0003.35,0001.67
2024-03-01 10:45:00,SystemResetWarning,0821.7,5.00,000.00,021.4,020.6,000.0,029.7,023.1,09.7,0000.0,0011.65,0003.36,0001.65
2024-03-01 10:46:00,SystemResetWarning,0821.8,5.00,000.00,021.4,020.6,000.0,029.7,023.1,09.8,0000.0,0011.53,0003.28,0001.62
2024-03-01 10:47:00,SystemResetWarning,0821.8,5.00,000.00,021.4,020.6,000.0,029.7,023.1,09.7,0000.0,0011.71,0003.26,0001.61
2024-03-01 10:48:00,SystemResetWarning,0821.9,5.00,000.00,021.4,020.6,000.0,029.7,023.1,09.7,0000.0,0011.47,0003.18,0001.58
2024-03-01 10:49:00,SystemResetWarning,0821.6,5.00,000.00,021.4,020.6,000.0,029.7,023.1,09.7,0000.0,0010.98,0003.17,0001.59
2024-03-01 10:50:00,SystemResetWarning,0821.6,5.00,000.00,021.4,020.6,000.0,029.7,023.1,09.8,0000.0,0010.56,0003.13,0001.58
2024-03-01 10:51:00,SystemResetWarning,0821.6,5.00,000.00,021.4,020.6,000.0,029.7,023.1,10.0,0000.0,0009.54,0003.11,0001.57
2024-03-01 10:52:00,SystemResetWarning,0821.7,4.99,000.00,021.4,020.6,000.0,029.7,023.1,10.0,0000.0,0008.68,0003.12,0001.55
2024-03-01 10:53:00,SystemResetWarning,0821.7,5.00,000.00,021.4,020.5,000.0,029.7,023.1,10.1,0000.0,0008.27,0003.07,0001.53
2024-03-01 10:54:00,SystemResetWarning,0821.6,5.01,000.00,021.3,020.5,000.0,029.7,023.1,10.0,0000.0,0007.54,0003.04,0001.53
2024-03-01 10:55:00,SystemResetWarning,0821.6,5.01,000.00,021.3,020.5,000.0,029.7,023.1,10.1,0000.0,0007.46,0003.08,0001.52
2024-03-01 10:56:00,SystemResetWarning,0821.7,5.00,000.00,021.3,020.5,000.0,029.7,023.1,10.2,0000.0,0007.04,0003.06,0001.53
2024-03-01 10:57:00,SystemResetWarning,0821.6,5.00,000.00,021.3,020.5,000.0,029.6,023.1,10.2,0000.0,0007.58,0003.12,0001.53
2024-03-01 10:58:00,SystemResetWarning,0821.6,4.99,000.00,021.3,020.5,000.0,029.6,023.0,10.2,0000.0,0007.53,0003.13,0001.53
2024-03-01 10:59:00,SystemResetWarning,0821.9,4.99,000.00,021.3,020.5,000.0,029.6,023.0,10.2,0000.0,0007.77,0003.19,0001.54
